User: anonymous   Login
Location: Unspecified
(43.4354°N, 0.0000°E)
Time: 00:26:38
(UTC+00:00)
Language:

S-56A Canister/Altair - Orbit

View from above orbital plane
View from above orbital plane
View from above satellite
View from above satellite

Ground track
Ground track

The orbit data is extracted from the following two-line orbital elements,

1    82U 61004B   19287.70178527 +.00000000 +00000-0 +37664-4 0  9995
2    82 038.8619 032.0492 1174549 332.6161 021.7060 12.26052806777526
Epoch (UTC): 14 October 2019 16:50:34
Eccentricity: 0.1174549
inclination: 38.8619°
perigee height: 633 km
apogee height: 2499 km
right ascension of ascending node: 32.0492°
argument of perigee: 332.6161°
revolutions per day: 12.26052806
mean anomaly at epoch: 21.7060°
orbit number at epoch: 77752

The dashed part of the orbit path shows where the satellite is in the earth's shadow,  

DLR